User: anonymous   Login
Location: Unspecified
(0.0000°N, 0.0000°E)
Time: 13:12:23
(UTC+00:00)
Language:

SAUDISAT 4 - Orbit

View from above orbital plane
View from above orbital plane
View from above satellite
View from above satellite

Ground track
Ground track

The orbit data is extracted from the following two-line orbital elements,

1 40016U 14033G   21016.17586418  .00000027  00000-0  11157-4 0  9990
2 40016  97.6828 233.3846 0048804  19.7442 340.5643 14.75326070354140
Epoch (UTC): 16 January 2021 04:13:14
Eccentricity: 0.0048804
inclination: 97.6828°
perigee height: 610 km
apogee height: 678 km
right ascension of ascending node: 233.3846°
argument of perigee: 19.7442°
revolutions per day: 14.75326070
mean anomaly at epoch: 340.5643°
orbit number at epoch: 35414

The dashed part of the orbit path shows where the satellite is in the earth's shadow,  

DLR